Simultaneous Nadir Overpasses (SNOs) Predictions

Prediction of SNOs between METOP-B and NOAA-19 Satellite Orbit:

Table of predicted SNOs for the next 14.0 days since TLE Epoch: 4/25/2014
Index Date (METOP-B) Time (METOP-B) Lat,Lon (METOP-B) SZA (METOP-B ) Date (NOAA-19) Time (NOAA-19) Lat,Lon (NOAA-19) SZA (NOAA-19 ) Distance(km) Time Diff (sec)
1 05/03/2014 20:05:40 74.21,-125.95 58.33 05/03/2014 20:04:29 74.24,-127.43 58.40 44.90 71
2 05/03/2014 20:56:28 -73.93, 40.68 121.95 05/03/2014 20:55:22 -73.91, 40.68 121.97 2.68 66
3 05/03/2014 21:47:08 73.89,-152.08 58.01 05/03/2014 21:46:26 73.91,-152.11 58.04 2.84 42
4 05/03/2014 22:37:51 -73.86, 15.17 122.04 05/03/2014 22:37:25 -73.87, 15.24 122.02 3.08 26
5 05/03/2014 23:28:30 73.87,-177.48 57.96 05/03/2014 23:28:29 73.88,-177.54 57.98 2.54 1
6
